Flag for Germany Weather past 2 weeks in Freiberg, Saxony, Germany

Now
46 °F

Light rain. Passing clouds.


Feels Like: 41 °F
Forecast: 38 / 44 °F
Wind: 13 mph from North

Location: Dresden-Klotzsche

Current Time: Apr 28, 2015 at 12:47:06 AM

Latest Report: Apr 28, 2015 at 12:20 AM


Visibility: N/A

Pressure: 29.65 "Hg

Humidity: 100%

Dew point: 46 °F

Location of FreibergLocation

Historic Weather in Freiberg — Graph

°F

Freiberg temperature yesterday

Maximum temperature yesterday: 72 °F (at 1:20 PM)
Minimum temperature yesterday: 48 °F (at 8:20 PM)
Average temperature yesterday: 58 °F

Past Weeks' High & Low Weather Summary

 TemperatureHumidityPressure
High72 °F (Apr 27, 1:20 PM)100% (Apr 23, 3:50 AM)30.39 "Hg (Apr 23, 3:50 AM)
Low32 °F (Apr 19, 4:50 AM)24% (Apr 21, 3:50 PM)29.53 "Hg (Apr 27, 3:50 PM)
Average51 °F63%30.05 "Hg
* Reported Apr 12 11:20 PM — Apr 27 11:20 PM, Freiberg, Weather by CustomWeather, © 2015

Note: Actual official high and low records may vary slightly from our data, if they occured in-between our weather recording intervals... More about our weather records

Advertising

Freiberg weather history for previous 24 hours

 ConditionsComfort  
Time TempWeatherWind HumidityBarometerVisibility
11:20 PM
Mon, Apr 27
48 °FPartly cloudy.9 mph100%29.65 "HgN/A
10:50 PM48 °FPartly cloudy.8 mph100%29.65 "HgN/A
10:20 PM48 °FLight rain. Partly cloudy.8 mph100%29.65 "HgN/A
9:50 PM48 °FLight rain. Partly cloudy.8 mph100%29.65 "Hg6 mi
9:20 PM50 °FLight rain. Passing clouds.6 mph100%29.65 "Hg3 mi
8:50 PM48 °FRain. Partly sunny.8 mph100%29.62 "Hg3 mi
8:20 PM48 °FRain. Partly sunny.10 mph100%29.59 "Hg3 mi
7:50 PM50 °FSprinkles. Broken clouds.7 mph100%29.62 "Hg3 mi
7:20 PM50 °FThundershowers. Partly sunny.12 mph100%29.62 "Hg2 mi
6:50 PM50 °FThunderstorms. Partly sunny.6 mph100%29.65 "Hg2 mi
6:20 PM52 °FThunderstorms. Partly sunny.15 mph100%29.62 "Hg4 mi
5:50 PM54 °FThundershowers. Partly sunny.17 mph94%29.59 "Hg5 mi
5:20 PM57 °FThunderstorms. Partly sunny.18 mph88%29.56 "Hg5 mi
4:50 PM63 °FSprinkles. Partly sunny.17 mph73%29.56 "HgN/A
4:20 PM68 °FPartly sunny.12 mph56%29.53 "HgN/A
3:50 PM70 °FBroken clouds.14 mph53%29.53 "HgN/A
3:20 PM72 °FScattered clouds.12 mph50%29.56 "HgN/A
2:50 PM70 °FPassing clouds.9 mph50%29.56 "HgN/A
2:20 PM70 °FScattered clouds.6 mph50%29.56 "HgN/A
1:50 PM72 °FScattered clouds.5 mph50%29.56 "HgN/A
1:20 PM72 °FScattered clouds.5 mph44%29.56 "HgN/A
12:50 PM70 °FScattered clouds.5 mph43%29.59 "HgN/A
12:20 PM68 °FScattered clouds.6 mph53%29.59 "HgN/A
11:50 AM68 °FScattered clouds.3 mph53%29.59 "HgN/A
11:20 AM63 °FScattered clouds.5 mph68%29.59 "HgN/A
10:50 AM64 °FScattered clouds.3 mph64%29.59 "HgN/A
10:20 AM63 °FBroken clouds.2 mph68%29.59 "HgN/A
9:50 AM59 °FLight rain. Partly sunny.6 mph77%29.59 "HgN/A
9:20 AM59 °FLight rain. Partly sunny.10 mph72%29.59 "HgN/A
8:50 AM59 °FPartly sunny.10 mph72%29.59 "HgN/A
8:20 AM59 °FSunny.12 mph72%29.59 "Hg10 mi
7:50 AM59 °FSunny.12 mph72%29.59 "Hg10 mi
7:20 AM57 °FSunny.9 mph77%29.59 "Hg10 mi
6:50 AM55 °FSunny.10 mph82%29.59 "Hg10 mi
6:20 AM54 °FClear.10 mph88%29.59 "Hg10 mi
5:20 AM54 °FClear.10 mph88%29.62 "Hg10 mi
4:50 AM54 °FClear.10 mph88%29.62 "Hg10 mi
4:20 AM52 °FClear.10 mph88%29.62 "Hg10 mi
3:50 AM54 °FClear.10 mph88%29.65 "Hg10 mi
3:20 AM54 °FClear.10 mph82%29.65 "Hg10 mi
2:50 AM54 °FClear.12 mph88%29.65 "Hg10 mi
2:20 AM54 °FClear.10 mph88%29.65 "Hg10 mi
1:50 AM55 °FClear.10 mph82%29.65 "Hg10 mi
1:20 AM54 °FClear.8 mph88%29.68 "Hg10 mi
12:50 AM54 °FClear.5 mph88%29.68 "Hg10 mi
12:20 AM54 °FClear.3 mph82%29.71 "Hg10 mi
Weather by CustomWeather, © 2015

See weather overviewHow to use our weather pages